Flag Weather past 2 weeks in Brantford, Ontario, Canada

Now
55 °F

Sprinkles. Partly sunny.


Feels Like: 50 °F
Forecast: 38 / 56 °F
Wind: 23 mph from Southwest

Location: Hamilton Airport

Current Time: Nov 24, 2014 at 9:24:07 AM

Latest Report: Nov 24, 2014 at 9:00 AM


Visibility: 15 mi

Pressure: 29.23 "Hg

Humidity: 88%

Dew point: 52 °F

Location of BrantfordLocation

Historic Weather in Brantford — Graph

°F

Brantford temperature yesterday

Maximum temperature yesterday: 48 °F (at 2:00 PM)
Minimum temperature yesterday: 41 °F (at 3:00 AM)
Average temperature yesterday: 44 °F

Past Weeks' High & Low Weather Summary

 TemperatureHumidityPressure
High63 °F (Nov 11, 3:00 PM)100% (Nov 10, 9:00 PM)30.47 "Hg (Nov 10, 9:00 PM)
Low9 °F (Nov 19, 6:00 AM)45% (Nov 11, 3:00 PM)29.20 "Hg (Nov 24, 6:00 AM)
Average31 °F77%29.98 "Hg
* Reported Nov 9 8:00 AM — Nov 24 8:04 AM, Brantford, Weather by CustomWeather, © 2014

Note: Actual official high and low records may vary slightly from our data, if they occured in-between our weather recording intervals... More about our weather records

Advertising

Brantford weather history for previous 24 hours

 ConditionsComfort  
Time TempWeatherWind HumidityBarometerVisibility
8:04 AM
Nov 24
55 °FLight rain. Broken clouds.31 mph88%29.22 "Hg12 mi
7:00 AM55 °FLight rain. Overcast.30 mph94%29.21 "Hg15 mi
6:00 AM55 °FLight rain. Mostly cloudy.28 mph88%29.20 "Hg8 mi
5:00 AM54 °FMostly cloudy.23 mph88%29.21 "Hg15 mi
4:00 AM52 °FLight rain. Mostly cloudy.15 mph88%29.25 "Hg15 mi
3:00 AM50 °FLight rain. Mostly cloudy.16 mph94%29.30 "Hg10 mi
2:00 AM48 °FLight rain. Fog.15 mph94%29.35 "Hg4 mi
1:00 AM48 °FLight rain. Fog.18 mph94%29.43 "Hg4 mi
12:00 AM46 °FSprinkles. Mostly cloudy.14 mph87%29.52 "Hg10 mi
11:00 PM
Nov 23
43 °FSprinkles. Mostly cloudy.8 mph87%29.61 "Hg12 mi
10:00 PM41 °FOvercast.9 mph93%29.64 "Hg15 mi
9:00 PM43 °FMostly cloudy.9 mph87%29.69 "Hg15 mi
8:00 PM45 °FOvercast.10 mph81%29.73 "Hg15 mi
7:00 PM45 °FMostly cloudy.6 mph81%29.78 "Hg15 mi
6:00 PM45 °FMostly cloudy.6 mph81%29.82 "Hg15 mi
5:00 PM45 °FPartly cloudy.6 mph87%29.83 "Hg12 mi
4:00 PM48 °FBroken clouds.7 mph87%29.87 "Hg12 mi
3:00 PM48 °FCloudy.7 mph87%29.88 "Hg10 mi
2:00 PM48 °FMostly cloudy.10 mph94%29.92 "Hg9 mi
1:00 PM46 °FLight rain. Mostly cloudy.13 mph100%29.95 "Hg7 mi
12:00 PM45 °FLight rain. Mostly cloudy.13 mph93%29.99 "Hg7 mi
11:00 AM43 °FLight rain. Cloudy.15 mph100%30.02 "Hg8 mi
10:00 AM45 °FMore clouds than sun.12 mph87%30.01 "Hg15 mi
9:00 AM45 °FOvercast.8 mph81%30.01 "Hg15 mi
Weather by CustomWeather, © 2014

See weather overviewHow to use our weather pages